Voltar ao catálogo

NOAA 16 DEB

AtivoSSO
NORAD 41269·DEBRIS·🇺🇸 United States

Lançado Sep 21, 2000 de Vandenberg Space Force Base

Loading…

Próximas Passagens (próximas 24 horas)

TLE

AtualizadoSource: Space-Track

Época: Sep 14, 2026, 14:11 UTC

1 41269U 00055FV  26257.59143825  .00005201  00000-0  17100-2 0  9990
2 41269  98.9398  26.0529 0017865 291.1523  68.7754 14.38611248554003

Acompanhe NOAA 16 DEB em tempo real com AllMySat

Download on the App Store